Location: Fort Worth, Tx
(32.7431°N, 97.3695°W)
Time: 03:17:25
(UTC-04:00)

Vanguard 3 - Pass Details

Date: 03 March 2024
Orbit: 510 x 3234 km, 33.3° (Epoch: 24 April)

Event Time Altitude Azimuth Distance (km) Brightness Sun altitude
Rises 19:59:35 0° 246° (WSW) 5,671 13.0 -7.3°
Reaches altitude 10° 20:02:46 10° 245° (WSW) 4,961 12.4 -7.9°
Maximum altitude 20:18:42 80° 161° (SSE) 3,117 10.0 -11.3°
Enters shadow 20:36:30 16° 79° (ENE) 5,604 10.8 -15.0°
